GSAT0222 (GALILEO 26) (43565 NORAD) Tracking and Keplerian Element Data

This shows tracking and keplerian element data for the satellite.

Feedback or suggestion? Click here.




ElementValue
Catalog43565
NameGSAT0222 (GALILEO 26)
Epoch Orbit465
Epoch Day111.46482656
Epoch Year2019
RAAN52.6617
Inclination56.5259
Eccentricity0.000542
Argument of Perigee298.4652
Mean Anonmoly61.4467
Mean Motion1.70475728
Decay Rate-7.4E-07
L11 43565U 18060B 19111.46482656 -.00000074 00000-0 00000+0 0 9993
L22 43565 56.5259 52.6617 0005420 298.4652 61.4467 1.70475728 4655

Live tracking and technical data element details for GSAT0222 (GALILEO 26) (NORAD 43565). GSAT0222 (GALILEO 26) can be tracked NOW for your location showing map with azimuth and elevation plus other details from your city location.

Track the satellite on the map from your city or location and see movement details for azimuth, elevation, latitude, longitude, range, height, and movement on the map or in text.







IsCatalogInMostPopularTable: catalog: 43565, numindb: 116
Update: records affected: 1



GetName: 43565 GSAT0222 (GALILEO 26)

Hit Count: updated at: Tue, 23 Apr 2019 19:53:19 GMT